This is the latest recevied weather packets stored in our database for station/object N6WDO. If no packets are shown the sender has not sent any weather packets the latest 10 day(s).
| Time | Temp. | Humidity | Pressure | Rain* | Wind** | Luminosity | Snow |
|---|---|---|---|---|---|---|---|
| 1777521526 | 13.33° C | 74% | 1016.8 hPa | 0 mm | - | 0 W/m² | - |
| 1777521224 | 13.33° C | 74% | 1016.6 hPa | 0 mm | - | 0 W/m² | - |
| 1777520921 | 13.89° C | 73% | 1016.7 hPa | 0 mm | - | 0 W/m² | - |
| 1777520618 | 14.44° C | 70% | 1016.6 hPa | 0 mm | - | 0 W/m² | - |
| 1777520315 | 15° C | 67% | 1016.7 hPa | 0 mm | - | 0 W/m² | - |
| 1777520013 | 15° C | 65% | 1016.7 hPa | 0 mm | - | 0 W/m² | - |
| 1777519709 | 15° C | 66% | 1016.5 hPa | 0 mm | - | 0 W/m² | - |
| 1777519406 | 15° C | 62% | 1016.3 hPa | 0 mm | - | 0 W/m² | - |
| 1777519103 | 15° C | 64% | 1016.2 hPa | 0 mm | - | 0 W/m² | - |
| 1777518799 | 16.11° C | 61% | 1015.9 hPa | 0 mm | - | 0 W/m² | - |
| 1777518495 | 16.67° C | 57% | 1016.2 hPa | 0 mm | - | 0 W/m² | - |
| 1777518190 | 16.67° C | 55% | 1016.3 hPa | 0 mm | - | 0 W/m² | - |
| 1777517888 | 17.22° C | 53% | 1016.1 hPa | 0 mm | - | 0 W/m² | - |
| 1777517583 | 17.78° C | 54% | 1016.1 hPa | 0 mm | - | 1 W/m² | - |
| 1777517281 | 18.33° C | 50% | 1015.9 hPa | 0 mm | - | 2 W/m² | - |
| 1777516980 | 18.33° C | 49% | 1016 hPa | 0 mm | - | 3 W/m² | - |
| 1777516676 | 18.33° C | 49% | 1016 hPa | 0 mm | - | 5 W/m² | - |
| 1777516372 | 18.89° C | 48% | 1015.9 hPa | 0 mm | - | 8 W/m² | - |
| 1777516068 | 18.89° C | 45% | 1016 hPa | 0 mm | - | 10 W/m² | - |
| 1777515765 | 18.89° C | 47% | 1016 hPa | 0 mm | - | 13 W/m² | - |
| 1777515462 | 19.44° C | 46% | 1015.9 hPa | 0 mm | - | 16 W/m² | - |
| 1777515159 | 20° C | 45% | 1015.9 hPa | 0 mm | - | 18 W/m² | - |
| 1777514855 | 20° C | 44% | 1015.9 hPa | 0 mm | - | 20 W/m² | - |
| 1777514552 | 20.56° C | 43% | 1016 hPa | 0 mm | - | 22 W/m² | - |
| 1777514250 | 20.56° C | 43% | 1016 hPa | 0 mm | - | 24 W/m² | - |
* Rain latest hour (hover to see other rain measurements)
** Current wind speed in m/s (hover to see current wind gust speed)